User: anonymous   Login
Location: Unspecified
(0.0000°N, 0.0000°E)
Time: 21:07:25
(UTC+00:00)
Language:

ONEWEB-0587 - Orbit

View from above orbital plane
View from above orbital plane
View from above satellite
View from above satellite

Ground track
Ground track

The orbit is defined by the following mean orbital elements,

1 54654U          26145.57705193 +.00000000 +00000-0 -72461-4 0 00007
2 54654  87.9265 248.4654 0001639 105.3149 254.8166 13.21827464    08
Epoch (UTC): 25 May 2026 13:50:57
Eccentricity: 0.0001639
inclination: 87.9265°
perigee height: 1177 km
apogee height: 1179 km
right ascension of ascending node: 248.4654°
argument of perigee: 105.3149°
revolutions per day: 13.21827464
mean anomaly at epoch: 254.8166°

The dashed part of the orbit path shows where the satellite is in the earth's shadow,  

DLR